Temp_Advection
nan nan nan nan nan nan nan nan nan nan nan nan nan nan nan nan nan nan nan nan nan nan nan nan nan nan nan nan nan nan nan nan nan nan nan nan nan nan nan nan nan nan nan nan
nan 0 -0 -0 -0 -0 -0 -0 -0 -0 -0 0 -0 -0 -0 0 0 0 -0 -0 -0 -0 -0 -0 -0 -0 -0 -0 -0 0 -0 -0 -0 -0 -0 -0 -0 -0 -0 -0 -0 -0 -0 nan
nan -0 -0 0 -0 -0 -0 -0 -0 -0 0 0 0 0 0 -0 -0 -0 -0 -0 -0 -0 -0 -0 -0 -0 -0 -0 -0 -0 -0 -0 0 -0 -0 -0 -0 -0 -0 -0 -0 -0 -0 nan
nan -0 0 -0 -0 -0 -1 -0 -0 -0 -0 -1 -1 1 1 1 -0 -1 -0 -0 -0 -0 -0 -0 -0 -0 -0 -0 -0 -0 -0 -0 -0 -0 0 -0 -0 -0 -0 -0 -0 0 -0 nan
nan 0 -0 -0 -0 -0 -0 -0 -0 -1 -1 0 0 -1 -0 1 1 -0 -0 -0 -0 -0 -0 -0 -0 -0 -0 -0 -0 -0 -0 -0 -0 -0 -0 -0 -0 -0 -0 -0 0 0 -0 nan
nan 1 0 -0 -0 -1 -2 0 -0 -1 -1 -0 -1 -0 -0 1 1 0 -0 -0 -0 -0 -0 -0 -0 -0 -0 -0 -0 -0 -0 0 0 -0 -0 -0 -0 -0 0 0 1 0 -0 nan
nan 0 -0 -0 0 -0 -0 0 -1 -1 -1 -1 0 -0 -2 -0 0 0 -0 -0 -0 -0 -0 -0 -0 -0 -0 -0 -0 -0 -0 0 0 -0 -0 0 0 0 0 1 1 -0 -0 nan
nan 0 -0 0 0 -0 -0 -0 0 -1 -1 -1 -1 -1 -1 -0 -0 0 -0 -0 -0 -0 -0 -0 -0 -0 -0 -0 -0 0 0 0 -0 -0 -0 0 0 -0 -0 0 -1 -1 -1 nan
nan 0 -0 -1 0 0 -1 -4 -1 -1 -1 -1 -2 -1 -0 -0 -0 -0 -0 -0 -0 -0 -0 -0 -0 -0 -0 -0 -0 0 0 -0 -0 0 -0 -0 -0 -0 -0 -1 -1 -1 -1 nan
nan -0 -0 1 2 1 1 -0 -1 -0 -1 -0 -2 -1 -1 -0 -0 -0 -0 -0 -0 -0 -0 -0 -0 -0 -0 -0 0 0 -0 -0 -0 -0 -0 -0 -0 -0 -1 -1 -2 -2 -1 nan
nan 0 -0 0 2 1 0 1 -0 0 1 0 -1 -1 -1 -0 -0 -0 -0 -0 -0 -0 -0 -0 -0 -0 -0 -0 0 -0 -0 -0 -0 -0 -0 -0 -0 -0 -0 -1 -1 0 0 nan
nan -1 -1 -1 1 1 -1 -0 0 -1 -0 1 0 -1 -1 -0 -0 -0 -0 -0 -0 -0 -0 -0 -0 -0 -0 -0 -0 -0 -0 -0 -0 -0 -0 -0 0 0 0 1 1 1 1 nan
nan -0 1 -1 1 1 -0 -1 0 0 -1 -1 0 -0 -0 -0 -0 -0 -0 -0 -0 -0 -0 -0 -0 -0 -0 -0 -0 -0 -0 -0 -0 -0 -0 -0 -0 0 0 -0 0 1 0 nan
nan -3 -2 0 0 1 0 -0 -0 0 0 -0 -1 -0 -0 -0 -0 -0 -0 -0 -0 -0 -0 -0 -0 -0 -0 -0 -0 -0 -0 -0 -0 -0 0 0 -0 -0 -1 -1 -1 -1 0 nan
nan -0 -3 -2 -1 0 0 -0 -0 -0 -0 0 0 -0 -0 -0 -0 -0 -0 -0 -0 -0 -0 -0 -0 -0 -0 -0 -0 -0 -0 -0 0 0 0 0 -0 -0 -1 -2 -1 -0 0 nan
nan 3 2 0 -0 -0 -0 -0 -1 -1 -0 -0 -0 0 0 -0 -0 -0 -0 -0 -0 -0 -0 -0 -0 -0 -0 -0 -0 0 0 0 0 0 0 -0 -0 -1 -1 -1 -0 0 -1 nan
nan -2 -0 -1 -0 -0 0 -0 -0 -1 -0 -0 -0 -0 -0 -0 -0 -0 -0 -0 -0 -0 -0 -0 -0 -0 -0 -0 0 0 0 0 0 0 -0 -0 -1 -1 -1 -0 -0 -0 0 nan
nan -3 -2 -2 -2 -1 -0 -0 0 -0 -0 -0 -0 -0 -0 -0 -0 -0 -0 -0 -0 -0 -0 -0 -0 -0 -0 0 0 0 0 0 -0 -0 -0 -1 -1 -0 0 -0 -0 0 1 nan
nan 1 1 1 -0 -1 -1 -0 0 0 0 -0 -0 0 0 0 0 -0 -0 -0 -0 -0 -0 -0 -0 -0 -0 0 0 0 0 0 0 -0 -1 -1 0 -0 -0 -0 -0 0 1 nan
nan 1 -0 -0 0 0 -0 -0 -0 0 0 0 -0 -0 -0 0 0 0 -0 -0 -0 -0 -0 -0 -0 0 0 0 0 0 0 0 -0 -0 -0 -0 -0 -0 -0 -0 -0 0 0 nan
nan 0 0 0 0 0 0 0 0 -0 -0 0 0 0 -0 -0 0 0 0 -0 -0 -0 -0 -0 -0 0 0 0 -0 -0 0 0 -0 -0 -0 -1 -1 -0 -0 -0 -0 -0 -0 nan
nan 0 1 0 -0 -0 0 0 0 -0 -0 -0 0 0 0 -0 -0 -0 -0 0 0 -0 -0 -0 -0 -0 0 -0 -0 -0 0 -0 -0 -0 -0 -1 -0 -0 -0 -0 -0 -0 0 nan
nan 1 0 0 0 0 0 0 0 0 0 0 -0 -0 -0 0 0 0 0 0 0 0 -0 -0 -0 -0 -0 -0 -0 -0 -0 -0 -0 -0 -0 -0 -0 -0 -0 -0 -0 0 0 nan
nan 0 0 0 0 0 -0 -0 0 0 1 0 0 0 0 1 0 0 0 0 0 0 0 -0 -0 -0 0 -0 -0 -0 -0 -0 -0 -0 -0 -0 -0 -0 -0 -0 0 0 0 nan
nan 0 0 0 -0 -0 -0 -0 -0 0 0 0 0 0 1 0 0 0 0 0 0 0 0 0 0 0 0 0 0 0 -0 -0 -0 -0 -0 -0 -0 0 -0 -0 0 0 0 nan
nan 0 0 0 0 0 0 -0 -0 -0 -0 -0 -0 -0 0 0 0 0 0 0 0 0 0 0 0 0 0 0 0 0 0 -0 -0 -0 -0 -0 -0 -0 -0 -0 -0 -0 -0 nan
nan nan nan nan nan nan nan nan nan nan nan nan nan nan nan nan nan nan nan nan nan nan nan nan nan nan nan nan nan nan nan nan nan nan nan nan nan nan nan nan nan nan nan nan
Wind_Speed
7 7 7 4 4 4 4 4 2 8 6 9 9 12 21 20 20 20 19 15 10 5 4 4 5 4 6 10 13 17 17 18 19 18 22 27 31 30 28 29 28 26 27 28
7 4 10 7 5 10 7 8 9 9 5 6 13 17 17 20 21 20 17 14 9 4 6 4 4 4 6 9 15 16 15 16 17 19 23 29 31 30 30 31 30 26 28 29
3 0 4 5 3 3 4 3 8 5 5 11 7 11 15 20 20 18 16 13 8 8 6 3 4 4 7 12 14 14 12 16 18 20 23 28 30 30 30 33 31 27 29 30
3 3 2 3 3 9 11 5 8 10 9 15 18 16 15 16 19 18 17 12 11 9 5 5 5 8 10 11 11 13 14 16 19 21 23 26 28 30 31 34 30 29 30 32
4 3 2 4 3 6 6 1 4 11 17 23 26 25 16 14 15 16 14 14 11 7 5 5 6 9 12 9 11 14 16 17 20 21 23 25 28 31 31 34 29 28 31 33
3 5 6 6 6 17 12 1 12 17 23 29 20 4 6 17 17 17 15 13 10 7 4 5 6 9 6 9 12 15 18 17 20 20 22 24 27 30 30 33 28 29 32 33
3 2 5 4 15 11 5 6 27 28 31 26 5 4 29 23 20 17 15 13 8 4 3 4 5 5 7 11 12 15 16 17 19 19 21 24 25 28 29 32 29 32 33 35
3 4 3 7 7 7 6 15 30 27 28 19 17 32 30 26 24 18 17 11 6 3 3 3 2 4 7 10 12 15 16 17 18 19 21 24 25 27 29 31 32 34 35 37
2 3 5 4 2 11 21 33 29 31 26 27 33 31 30 28 22 18 13 10 6 4 5 6 4 6 9 12 12 13 15 17 19 19 22 24 26 26 29 31 33 34 36 37
3 7 7 17 24 23 25 27 26 28 30 29 32 32 31 26 22 18 13 8 6 4 5 6 6 9 11 12 12 12 14 17 20 20 22 24 24 24 26 31 33 33 34 35
4 6 16 14 25 25 26 27 30 30 29 29 32 32 30 25 21 17 13 9 4 2 5 6 7 9 11 12 13 13 14 17 20 20 22 23 23 23 21 23 25 27 28 29
4 20 11 18 26 26 31 32 32 33 32 29 29 31 26 23 19 15 12 7 5 6 5 5 5 7 11 14 15 15 16 19 21 21 22 22 22 19 18 20 22 23 24 26
10 23 23 31 29 26 30 30 29 28 30 34 28 26 23 22 18 15 10 9 6 6 5 5 5 7 9 13 15 16 18 19 20 21 22 23 22 22 22 19 24 24 25 26
39 31 29 34 32 29 29 29 27 28 29 27 27 23 21 20 18 13 11 10 8 7 6 5 5 7 9 12 14 15 18 19 20 21 21 20 20 21 23 26 27 29 28 28
32 24 38 34 33 33 30 31 30 30 29 28 23 22 19 19 16 14 12 10 9 7 4 4 4 6 8 11 13 15 18 19 19 18 19 20 21 22 24 26 27 29 29 30
23 27 37 38 37 35 32 31 31 31 29 28 25 21 18 15 15 14 13 9 6 5 4 2 3 5 8 10 13 14 17 18 18 18 19 22 23 25 26 26 28 30 33 34
37 31 37 38 38 36 33 29 27 30 30 27 24 22 19 18 17 16 13 10 7 5 5 3 3 5 7 10 13 14 16 16 17 17 20 21 23 27 28 29 30 31 31 32
30 34 38 38 39 37 33 28 27 28 29 27 24 22 20 18 16 15 13 11 9 8 6 4 4 6 8 10 12 14 14 15 16 17 19 21 24 25 27 30 31 32 32 33
24 33 34 35 33 31 29 28 27 27 27 25 23 20 17 16 15 15 13 11 9 7 6 5 5 6 7 9 11 12 12 13 14 16 19 21 22 24 27 29 31 31 33 35
28 32 32 32 30 27 28 26 27 27 25 24 23 22 21 19 17 15 13 10 9 8 6 5 4 5 7 9 10 10 11 12 13 16 17 19 22 24 25 26 28 29 30 32
29 31 31 30 28 25 25 26 27 26 25 24 23 21 20 19 18 15 14 11 10 8 6 5 3 3 6 7 7 8 9 10 12 14 16 19 21 22 23 24 26 27 29 29
30 31 31 29 28 26 25 25 24 23 24 24 22 21 21 20 19 16 12 8 8 8 6 4 2 2 4 5 5 6 7 8 11 13 16 17 18 19 21 22 23 25 26 27
31 31 31 30 28 27 26 24 23 22 23 24 23 21 19 17 17 16 14 13 11 8 7 4 3 1 1 2 3 4 5 7 9 11 14 15 15 16 18 19 21 22 23 25
31 32 31 30 27 26 27 26 24 22 21 21 19 17 17 19 18 14 11 10 10 9 7 5 4 3 1 1 1 2 3 6 8 10 12 13 13 13 15 17 18 20 20 22
31 31 30 30 28 27 26 26 25 24 24 22 20 19 17 15 11 11 12 12 11 9 8 8 6 4 3 2 2 2 3 5 8 10 10 10 10 11 13 14 15 16 18 19
30 30 30 28 26 25 26 27 27 27 26 25 23 21 20 19 16 13 12 12 12 11 9 9 7 6 6 5 4 3 4 5 8 9 8 7 7 8 10 11 12 13 14 16
31 30 30 28 26 24 25 26 25 25 25 23 21 22 22 20 17 14 14 13 12 12 11 11 9 9 8 7 7 6 5 6 8 8 7 6 4 5 7 9 10 11 12 13
Wind_Direction
37 83 86 91 94 49 81 123 120 159 134 174 166 164 170 175 174 172 173 171 164 146 106 82 28 38 5 356 357 356 358 7 11 9 3 2 3 3 2 2 357 353 350 349
42 56 95 94 81 85 65 102 74 102 86 149 158 161 153 165 166 167 170 164 159 139 132 88 52 17 355 358 356 355 1 16 10 9 3 2 4 6 5 4 1 358 357 356
131 291 126 40 186 100 100 74 135 142 190 136 117 123 146 156 170 165 163 159 144 132 128 76 31 11 358 360 353 358 20 16 11 8 4 1 3 5 6 5 2 3 2 2
132 40 49 277 43 121 101 52 103 103 112 113 115 111 133 165 167 153 153 146 136 131 107 61 45 13 3 356 14 24 21 15 9 8 4 2 3 4 4 5 7 6 8 8
116 96 287 61 168 151 135 351 128 121 114 119 125 119 93 138 146 141 140 135 127 122 93 62 32 15 354 23 28 22 19 7 5 4 3 3 2 3 3 4 8 11 13 12
100 120 198 231 179 140 101 343 175 150 147 150 149 112 173 145 143 138 134 128 129 112 76 43 39 5 5 20 20 21 13 6 1 1 2 3 360 1 3 4 9 15 18 16
105 121 290 247 152 146 86 238 165 166 158 160 122 191 152 148 142 138 136 128 118 100 70 60 29 1 4 14 19 15 7 3 3 5 1 1 1 0 1 6 12 19 20 20
92 85 277 137 142 152 167 127 159 162 163 156 139 138 142 147 146 146 139 131 117 88 88 80 73 2 17 25 16 0 0 6 9 6 2 3 3 2 3 9 16 19 20 20
148 198 331 317 148 133 152 152 155 164 164 153 141 143 147 147 147 145 139 134 118 80 91 105 67 34 18 24 14 4 359 8 9 6 5 5 5 6 7 13 17 18 19 18
112 7 55 114 126 132 141 152 162 162 155 153 145 148 148 147 150 152 152 143 119 80 107 95 59 34 30 20 6 359 5 7 6 8 8 7 8 10 10 15 17 17 17 16
72 87 99 110 129 134 133 138 144 148 151 151 147 149 151 151 153 156 158 150 123 111 109 89 59 41 36 27 15 12 10 9 10 9 8 12 11 12 16 21 20 14 15 18
202 183 136 157 145 145 138 141 146 146 147 150 152 150 151 150 152 157 157 154 147 124 105 84 69 47 34 25 18 16 13 12 12 10 11 13 16 23 23 25 26 24 22 23
143 156 154 150 150 151 141 146 148 148 149 152 153 149 150 149 154 155 158 151 145 129 114 86 66 40 30 20 15 18 18 13 11 10 11 15 19 25 31 42 39 31 31 30
147 142 132 153 156 154 145 147 148 148 150 149 148 150 151 151 152 157 151 145 136 122 106 77 59 46 32 17 12 15 16 12 11 12 14 19 24 30 30 31 32 35 37 36
152 160 158 158 155 153 154 153 152 152 154 153 153 155 160 157 155 156 151 143 137 134 98 70 49 40 30 18 11 15 13 14 14 16 22 25 27 32 35 33 31 30 34 39
154 158 155 157 158 159 161 162 158 158 160 158 160 162 162 160 157 155 148 143 141 136 118 102 51 36 33 19 16 16 17 16 19 24 29 31 34 40 41 39 38 37 37 34
143 140 156 160 164 166 170 170 167 162 163 163 164 165 166 165 161 159 155 154 154 150 133 102 57 50 38 27 20 22 20 21 25 30 35 40 48 52 52 50 49 45 42 39
179 173 174 168 168 169 171 172 170 165 167 167 168 170 171 170 166 160 158 157 154 150 133 106 86 61 43 33 25 24 23 26 30 36 48 58 58 58 56 54 53 51 49 47
176 171 172 170 170 168 168 170 170 169 171 172 172 171 167 167 167 162 162 161 156 157 145 118 87 66 46 36 30 27 28 31 38 53 62 64 63 62 62 59 55 54 51 48
172 171 171 173 171 169 167 169 170 172 174 175 172 172 171 171 172 168 163 160 155 156 149 122 86 57 44 32 34 34 36 41 56 66 66 68 68 66 61 57 56 52 50 48
171 172 172 172 168 170 172 170 174 176 175 179 183 181 176 172 173 177 175 171 168 167 158 138 107 63 44 38 40 41 45 56 69 68 71 72 72 67 62 58 55 53 50 48
172 172 172 170 167 168 174 176 179 180 179 179 181 182 180 178 175 172 175 178 182 178 164 155 134 65 45 42 44 45 58 73 73 76 79 80 74 67 61 58 54 52 50 48
173 173 172 170 170 171 173 179 181 187 184 181 184 187 187 186 184 183 183 182 184 183 174 178 177 143 62 58 45 52 77 84 84 86 89 83 75 67 62 56 53 51 49 47
173 173 173 172 173 176 177 178 182 184 187 184 186 188 188 186 184 180 186 191 190 186 187 196 197 191 174 119 83 87 102 101 101 101 97 89 76 66 61 56 50 49 48 47
175 173 175 176 180 183 184 182 179 181 185 185 184 186 190 194 204 202 194 195 201 200 202 204 204 207 212 207 208 159 141 123 119 116 107 96 82 69 61 55 50 47 45 45
177 177 179 184 187 187 187 186 185 184 186 187 187 188 190 192 196 198 205 204 208 210 210 213 217 221 222 222 214 198 172 152 140 133 123 108 87 73 62 54 49 46 44 43
180 181 183 185 188 192 193 194 192 192 193 196 196 193 195 199 203 208 209 214 215 217 222 223 224 228 228 225 219 216 192 173 163 156 145 129 99 71 58 48 43 40 38 38
Height
1503 1502 1504 1510 1513 1512 1516 1524 1527 1539 1544 1548 1550 1553 1557 1561 1565 1569 1573 1576 1578 1580 1580 1579 1579 1578 1576 1574 1571 1568 1564 1559 1555 1551 1546 1540 1533 1525 1519 1512 1505 1498 1492 1485
1514 1510 1510 1521 1521 1519 1523 1528 1534 1540 1547 1545 1551 1555 1559 1563 1566 1570 1574 1577 1579 1580 1580 1580 1580 1578 1577 1575 1571 1568 1564 1560 1556 1552 1546 1540 1533 1526 1519 1512 1505 1498 1491 1484
1519 1514 1513 1527 1518 1519 1524 1526 1531 1543 1542 1545 1553 1556 1561 1564 1567 1570 1574 1577 1580 1581 1581 1581 1581 1579 1578 1575 1572 1568 1564 1561 1556 1552 1547 1540 1534 1527 1520 1512 1505 1498 1491 1483
1525 1521 1543 1522 1515 1517 1526 1532 1532 1537 1542 1547 1553 1558 1562 1566 1567 1572 1576 1579 1580 1581 1582 1582 1582 1580 1578 1576 1572 1569 1565 1561 1557 1552 1547 1541 1535 1528 1521 1513 1505 1498 1491 1483
1535 1539 1526 1523 1521 1522 1524 1539 1538 1540 1548 1552 1556 1560 1567 1570 1572 1574 1577 1580 1582 1583 1583 1583 1582 1581 1579 1576 1573 1570 1566 1562 1558 1553 1548 1542 1536 1529 1521 1514 1506 1499 1491 1484
1537 1534 1538 1519 1513 1515 1516 1545 1539 1539 1545 1549 1554 1565 1571 1572 1575 1576 1579 1581 1583 1584 1584 1584 1583 1582 1579 1576 1574 1570 1567 1563 1559 1554 1549 1543 1537 1530 1523 1516 1508 1501 1493 1486
1530 1536 1525 1511 1511 1515 1533 1538 1531 1539 1542 1549 1552 1556 1563 1571 1576 1579 1581 1583 1584 1585 1585 1584 1584 1582 1579 1577 1574 1571 1568 1564 1559 1555 1550 1545 1539 1531 1524 1517 1510 1501 1494 1487
1524 1533 1531 1509 1514 1521 1520 1524 1529 1539 1546 1550 1553 1558 1565 1571 1576 1579 1582 1584 1586 1586 1585 1584 1584 1582 1580 1577 1575 1573 1569 1565 1560 1556 1551 1546 1540 1533 1526 1518 1510 1503 1495 1488
1516 1519 1514 1512 1512 1514 1517 1521 1532 1537 1546 1550 1554 1561 1567 1572 1577 1581 1583 1585 1586 1586 1585 1585 1584 1583 1581 1578 1576 1573 1570 1566 1562 1557 1552 1546 1540 1534 1527 1520 1512 1505 1498 1491
1514 1518 1518 1516 1517 1519 1522 1525 1532 1540 1545 1551 1554 1562 1568 1574 1578 1581 1584 1586 1587 1586 1586 1585 1585 1584 1582 1580 1577 1575 1571 1567 1563 1559 1554 1548 1542 1536 1529 1522 1515 1509 1502 1496
1521 1522 1522 1522 1521 1523 1527 1532 1537 1545 1549 1552 1557 1564 1569 1574 1578 1582 1585 1586 1587 1587 1587 1586 1586 1585 1583 1581 1579 1576 1572 1569 1564 1560 1555 1550 1544 1538 1533 1528 1522 1515 1509 1503
1514 1509 1512 1522 1525 1528 1529 1535 1541 1544 1552 1558 1561 1564 1571 1575 1580 1582 1585 1587 1588 1588 1587 1587 1587 1586 1584 1583 1580 1577 1574 1570 1566 1562 1558 1552 1548 1543 1537 1532 1526 1521 1515 1508
1498 1509 1513 1520 1527 1532 1532 1539 1545 1549 1553 1556 1565 1568 1573 1576 1581 1584 1586 1587 1588 1588 1588 1588 1588 1587 1586 1584 1582 1579 1576 1572 1568 1564 1560 1555 1550 1545 1540 1536 1530 1524 1519 1513
1500 1506 1520 1524 1527 1534 1537 1543 1549 1553 1557 1562 1566 1571 1575 1578 1582 1585 1586 1588 1589 1590 1590 1590 1590 1589 1587 1586 1584 1581 1578 1574 1570 1566 1562 1558 1553 1548 1543 1537 1532 1527 1523 1517
1504 1507 1509 1521 1530 1535 1540 1544 1549 1554 1559 1564 1569 1572 1576 1579 1582 1585 1587 1589 1590 1591 1591 1591 1591 1590 1589 1587 1585 1583 1580 1576 1572 1569 1565 1561 1556 1551 1546 1542 1537 1532 1527 1522
1507 1511 1517 1522 1528 1534 1540 1546 1550 1555 1560 1565 1570 1574 1577 1581 1583 1586 1588 1590 1591 1592 1592 1592 1592 1591 1590 1589 1587 1585 1581 1578 1575 1572 1568 1564 1559 1555 1550 1546 1542 1537 1531 1526
1506 1516 1521 1525 1528 1534 1539 1546 1551 1555 1560 1566 1570 1574 1578 1581 1584 1586 1588 1590 1592 1594 1594 1594 1594 1593 1592 1591 1589 1586 1584 1581 1578 1575 1571 1567 1564 1560 1556 1552 1548 1543 1539 1534
1501 1506 1512 1516 1525 1533 1541 1547 1552 1557 1561 1566 1570 1574 1577 1580 1583 1586 1589 1591 1593 1594 1595 1595 1595 1594 1594 1592 1591 1588 1586 1583 1581 1578 1575 1572 1569 1566 1562 1558 1554 1549 1545 1541
1507 1512 1518 1524 1529 1535 1541 1547 1553 1558 1562 1567 1570 1574 1578 1582 1584 1587 1589 1591 1593 1595 1596 1596 1596 1596 1595 1594 1592 1590 1588 1586 1584 1581 1578 1576 1574 1571 1567 1564 1560 1556 1552 1548
1510 1515 1520 1525 1532 1538 1542 1549 1554 1558 1563 1567 1571 1574 1578 1582 1585 1587 1590 1592 1594 1596 1596 1597 1597 1597 1596 1595 1594 1592 1591 1589 1587 1585 1583 1581 1578 1576 1573 1570 1566 1563 1559 1554
1510 1516 1521 1528 1535 1541 1546 1549 1553 1558 1563 1568 1571 1574 1578 1581 1585 1587 1589 1591 1593 1595 1596 1597 1598 1598 1597 1596 1595 1594 1593 1591 1590 1588 1586 1585 1583 1581 1578 1575 1572 1569 1565 1561
1511 1517 1523 1530 1536 1541 1547 1551 1555 1559 1563 1567 1572 1575 1578 1581 1584 1587 1590 1592 1593 1595 1596 1597 1598 1598 1598 1597 1597 1596 1595 1593 1592 1591 1590 1588 1587 1585 1582 1580 1577 1574 1571 1567
1512 1518 1524 1530 1536 1541 1546 1551 1556 1560 1563 1567 1571 1575 1578 1581 1584 1585 1588 1590 1592 1594 1596 1597 1598 1598 1598 1598 1598 1597 1596 1595 1594 1593 1593 1592 1590 1589 1587 1584 1582 1579 1576 1573
1513 1520 1526 1531 1537 1541 1545 1550 1555 1560 1565 1568 1572 1576 1578 1580 1584 1586 1588 1590 1592 1594 1595 1596 1597 1598 1598 1598 1598 1598 1597 1597 1596 1595 1595 1594 1593 1592 1590 1588 1586 1583 1580 1577
1515 1520 1526 1531 1536 1541 1546 1550 1555 1559 1563 1567 1571 1575 1578 1581 1585 1586 1587 1589 1591 1593 1594 1595 1596 1597 1597 1598 1598 1598 1598 1597 1597 1597 1596 1596 1595 1594 1593 1591 1589 1587 1584 1581
1516 1521 1526 1531 1536 1540 1545 1549 1553 1557 1561 1565 1569 1573 1576 1579 1582 1584 1586 1588 1589 1591 1593 1594 1595 1596 1597 1597 1597 1597 1598 1598 1598 1598 1598 1598 1597 1596 1595 1593 1591 1590 1587 1584
1516 1521 1526 1531 1537 1541 1545 1549 1552 1556 1560 1564 1567 1570 1573 1577 1580 1582 1584 1585 1587 1589 1591 1592 1593 1594 1595 1596 1596 1597 1597 1598 1598 1598 1598 1598 1598 1597 1596 1595 1593 1592 1590 1587